FW4373 Weather Reports


time (UTC)temp
F
wind
direction
speed
knots
gust
knots
rain 1hr
in
rain 24hr
in
rain mn
in
humidity
%
barometer
mb
20260502123028 66 104 1.7 7.0 0.00 0.00 0.00 57 1016.0
20260502121529 65 106 0.9 3.5 0.00 0.00 0.00 60 1016.3
20260502114526 64 78 0.9 5.2 0.00 0.00 0.00 61 1016.6
20260502113028 64 0 0.9 5.2 0.00 0.00 0.00 61 1017.0
20260502111525 63 0 0.0 7.0 0.00 0.00 0.00 61 1016.9
20260502110027 63 0 0.0 1.7 0.00 0.00 0.00 65 1017.2
20260502104526 62 0 0.0 1.7 0.00 0.00 0.00 67 1017.5
20260502103026 61 92 0.0 7.0 0.00 0.00 0.00 71 1017.7
20260502101535 62 0 0.0 2.6 0.00 0.00 0.00 70 1017.8
20260502091526 58 0 0.0 3.5 0.00 0.00 0.00 74 1018.3
20260502071526 51 0 0.0 0.0 0.00 0.00 0.00 88 1019.1
20260502070028 51 0 0.0 0.0 0.00 0.00 0.00 91 1018.9
20260502064541 50 0 0.0 0.0 0.00 0.00 0.00 92 1019.0
20260502063034 49 0 0.0 0.0 0.00 0.00 0.00 92 1019.1
20260502061526 49 0 0.0 0.9 0.00 0.00 0.00 91 1019.0
20260502060029 49 0 0.0 0.0 0.00 0.00 0.00 92 1019.0
20260502054529 49 0 0.0 0.0 0.00 0.00 0.00 93 1019.0
20260502053028 49 0 0.0 0.0 0.00 0.00 0.00 93 1019.1
20260502051532 49 0 0.0 0.9 0.00 0.00 0.00 92 1019.0
20260502050028 49 0 0.0 0.9 0.00 0.00 0.00 92 1019.0
20260502044534 49 0 0.0 0.0 0.00 0.00 0.00 92 1018.9
20260502043028 49 0 0.0 0.0 0.00 0.00 0.00 92 1019.0
20260502041601 49 0 0.0 0.0 0.00 0.00 0.00 92 1019.0
20260502040039 49 0 0.0 0.0 0.00 0.00 0.00 92 1019.2
20260502034530 49 0 0.0 0.0 0.00 0.00 0.00 92 1019.1
20260502033025 49 0 0.0 0.0 0.00 0.00 0.00 91 1019.2
20260502031528 49 0 0.0 2.6 0.00 0.00 0.00 91 1019.3
20260502030030 50 0 0.0 0.0 0.00 0.00 0.00 91 1019.3
20260502024528 49 0 0.0 0.0 0.00 0.00 0.00 91 1019.4
20260502023028 50 0 0.0 0.0 0.00 0.00 0.00 91 1019.5
20260502021529 50 0 0.0 0.0 0.00 0.00 0.00 91 1019.5
20260502020028 50 0 0.0 0.0 0.00 0.00 0.00 91 1019.5
20260502014540 50 0 0.0 0.0 0.00 0.00 0.00 90 1019.5
20260502013028 50 0 0.0 0.0 0.00 0.00 0.00 90 1019.6
20260502011526 50 0 0.0 0.0 0.00 0.00 0.00 90 1019.7
20260502010029 50 0 0.0 0.0 0.00 0.00 0.00 89 1019.9
20260502004530 51 0 0.0 0.0 0.00 0.00 0.00 89 1019.9
20260502003027 51 0 0.0 0.0 0.00 0.00 0.00 89 1020.1
20260502001540 52 0 0.0 0.0 0.00 0.00 0.00 88 1020.3
20260502000027 52 0 0.0 0.0 0.00 0.00 0.00 87 1020.3
20260501234528 52 0 0.0 0.0 0.00 0.00 0.00 87 1020.4
20260501233028 52 0 0.0 0.0 0.00 0.00 0.00 86 1020.3
20260501231526 53 0 0.0 1.7 0.00 0.00 0.00 86 1020.5
20260501230030 53 0 0.0 2.6 0.00 0.00 0.00 85 1020.4
20260501224527 54 0 0.0 0.0 0.00 0.00 0.00 85 1020.6
20260501223027 54 0 0.0 1.7 0.00 0.00 0.00 85 1020.5
20260501221528 54 0 0.0 0.9 0.00 0.00 0.00 84 1020.4
20260501220026 54 0 0.0 1.7 0.00 0.00 0.00 84 1020.5
20260501214528 54 0 0.0 0.0 0.00 0.00 0.00 83 1020.5
20260501213025 54 0 0.0 2.6 0.00 0.00 0.00 82 1020.6
20260501211527 54 0 0.0 0.0 0.00 0.00 0.00 80 1020.6
20260501210032 55 0 0.0 0.0 0.00 0.00 0.00 78 1020.5
20260501204530 56 0 0.0 0.0 0.00 0.00 0.00 77 1020.4
20260501203032 57 0 0.0 0.0 0.00 0.00 0.00 76 1020.4
20260501201529 57 0 0.0 0.0 0.00 0.00 0.00 75 1020.3
20260501200028 58 0 0.0 0.0 0.00 0.00 0.00 74 1020.3
20260501194531 59 0 0.0 0.0 0.00 0.00 0.00 73 1020.3
20260501193029 60 0 0.0 0.0 0.00 0.00 0.00 73 1019.9
20260501191526 61 0 0.0 0.9 0.00 0.00 0.00 72 1020.0
20260501190033 62 0 0.0 0.0 0.00 0.00 0.00 70 1020.0
20260501184527 63 0 0.0 0.0 0.00 0.00 0.00 68 1019.9
20260501183028 64 0 0.0 3.5 0.00 0.00 0.00 66 1019.8
20260501181529 65 0 0.0 0.0 0.00 0.00 0.00 65 1019.8
20260501180037 65 0 0.0 2.6 0.00 0.00 0.00 63 1019.9
20260501174533 66 0 0.0 1.7 0.00 0.00 0.00 63 1019.8
20260501173028 67 0 0.0 2.6 0.00 0.00 0.00 62 1019.8
20260501171530 68 0 0.0 2.6 0.00 0.00 0.00 62 1019.9
20260501170026 68 0 0.0 1.7 0.00 0.00 0.00 63 1019.9
20260501164526 68 0 0.0 4.3 0.00 0.00 0.00 63 1019.8
20260501163027 68 0 0.0 4.3 0.00 0.00 0.00 63 1019.9
20260501161528 69 0 0.0 3.5 0.00 0.00 0.00 63 1019.9
20260501160028 68 0 0.0 9.6 0.00 0.00 0.00 64 1020.0
20260501154527 70 0 0.0 3.5 0.00 0.00 0.00 64 1020.1
20260501153028 69 0 0.0 5.2 0.00 0.00 0.00 65 1020.0
20260501151532 69 0 0.0 7.0 0.00 0.00 0.00 64 1020.0
20260501150034 70 0 0.0 4.3 0.00 0.00 0.00 63 1020.1
20260501144527 74 0 0.0 3.5 0.00 0.00 0.00 58 1020.0
20260501143029 73 0 0.0 0.9 0.00 0.00 0.00 57 1020.0
20260501141532 74 0 0.0 4.3 0.00 0.00 0.00 54 1020.1
20260501140026 74 0 0.0 7.0 0.00 0.00 0.00 56 1020.0
20260501134526 74 0 0.0 4.3 0.00 0.00 0.00 55 1020.0
20260501133033 75 0 0.0 3.5 0.00 0.00 0.00 54 1020.0